ANIK C2 R/B(PAM-D), 14135

Orbit data source: Space-Track

ANIK C2 R/B(PAM-D), 14135 is space debris in HEO originally from a launch on Sat, 18 Jun 1983 UTC launched from the Air Force Eastern Test Range (AFETR). Debris objects in space refer to the collection of defunct objects orbiting the Earth. Examples of debris include non-operational satellites, rocket bodies, and fragments generated from explosions, collisions, or faulty payload assembly.

Loading next visibility...
Identifier
14135, 1983-059D
Orbit
HEO
Country
Flag of USUS
Related business
Manufacturer
Thiokol/TE
Mission
Spacecraft
Bus & Motor
STAR 48, Unknown motor
Mass
2,154 kg wet, 191 kg dry
Launch date (UTC)
1983-06-18 (43 years ago)
Launch vehicle
Unknown
Launch site
Air Force Eastern Test Range (AFETR)
Object type
Payload
Rocket body
Debris
Shape & HBR
Unknown
Radar Cross Section
Large (>1 m²)

Expand to show TLE details & history
Last TLE update: 15 hours ago

TLE from 15 hours ago
0 ANIK C2 R/B(PAM-D)
1 14135U 83059D   26119.68370394  .00000675  00000-0  78737-3 0  9991
2 14135  23.0021 153.6107 6894496   6.4000 359.2954  2.71369518320164
Epoch: 2026-04-29T16:24Z
TLE epoch observation values (Epoch: 2026-04-29T16:24:32.020Z)
Latitude
0.00013°
Longitude
49.85347°
Altitude
387.807 km
Speed
9.973 km/s
True Right ascension
10h 14m 30s
True Declination
0° 00' 00"
Sunlit
Object was in full shadow at epoch
Visualization orbit readout
Latitude
Unknown
Longitude
Unknown
Altitude
Unknown
Speed
Unknown
Apparent Right ascension
Unknown
Apparent Declination
Unknown
Sunlit
N/A
Visualization observer readout
Local Sidereal Time
14:44:36
Azimuth
Unknown
Elevation
Unknown
Doppler factor
Unknown
Orbital elements
Apogee altitude
30,309.715 km
Perigee altitude
365.732 km
Semi-major axis
21,715.861 km
Eccentricity
0.68945
Inclination
23.0021°
RAAN
153.6107°
Arg. of periapsis
6.4°
True anomaly
354.71416°
Mean anomaly
359.2954°
Eccentric anomaly
357.73244°
Mean motion
0.67823 °/min
Orbital period
530.79 mins
BSTAR
0.00078737
Loading maneuver chart data...
Computing Atmospheric mass density...
Loading historical data...
Loading historical data...
Loading historical data...
Loading historical data...
Loading historical data...
Loading historical data...
Loading historical data...

Documentation

Showing up to 5 results
|